Location: Gull Harbor
(47.1000°N, 122.9000°W)
Time: 22:13:26
(UTC-08:00)

Envisat - Visible Passes

Search period start: 23 January 2019 00:00
Search period end: 02 February 2019 00:00
Orbit: 764 x 766 km, 98.2° (Epoch: 23 January)

Date Brightness Start Highest point End Pass type
(mag) Time Alt. Az. Time Alt. Az. Time Alt. Az.
23 Jan 5.5 06:56:40 10° NE 07:00:54 26° E 07:05:06 10° SSE visible
23 Jan 3.2 18:13:57 10° SE 18:18:47 46° ENE 18:23:38 10° N visible
23 Jan 5.1 19:53:49 10° SSW 19:58:00 25° W 20:02:13 10° NW visible
24 Jan 6.2 06:21:39 10° ENE 06:23:42 12° E 06:25:46 10° ESE visible
24 Jan 4.0 17:38:19 10° ESE 17:42:19 24° ENE 17:46:19 10° N visible
24 Jan 3.8 19:16:04 10° S 19:21:01 52° W 19:26:00 10° NNW visible
25 Jan 2.9 18:39:10 10° SSE 18:44:14 76° ENE 18:49:20 10° N visible
25 Jan 5.8 20:20:54 10° WSW 20:23:50 15° W 20:26:47 10° NW visible
26 Jan 5.8 06:45:45 10° NE 06:49:36 21° E 06:53:23 10° SE visible
26 Jan 3.5 18:02:59 10° SE 18:07:38 37° ENE 18:12:18 10° N visible
26 Jan 4.8 19:42:13 10° SSW 19:46:42 31° W 19:51:14 10° NNW visible
27 Jan 3.4 19:04:44 10° S 19:09:46 65° WSW 19:14:52 10° NNW visible
28 Jan 3.0 18:28:03 10° SSE 18:33:03 62° ENE 18:38:05 10° N visible
28 Jan 5.6 20:08:56 10° SW 20:12:30 19° W 20:16:05 10° NW visible
29 Jan 6.0 06:34:58 10° NE 06:38:15 17° E 06:41:31 10° SE visible
29 Jan 3.7 17:52:06 10° SE 17:56:30 31° ENE 18:00:57 10° N visible
29 Jan 4.4 19:30:42 10° SSW 19:35:25 39° W 19:40:12 10° NNW visible
30 Jan 3.1 18:53:29 10° SSE 18:58:34 81° WSW 19:03:41 10° NNW visible
30 Jan 6.2 20:37:05 10° W 20:38:24 11° W 20:39:43 10° WNW visible
31 Jan 5.4 06:59:42 10° NE 07:04:04 28° E 07:08:24 10° SSE visible
31 Jan 3.2 18:17:00 10° SE 18:21:53 50° ENE 18:26:48 10° N visible
31 Jan 5.3 19:57:09 10° SW 20:01:11 23° W 20:05:14 10° NW visible
01 Feb 6.2 06:24:24 10° ENE 06:26:54 14° E 06:29:24 10° ESE visible
01 Feb 4.0 17:41:17 10° ESE 17:45:24 26° ENE 17:49:33 10° N visible
01 Feb 4.0 19:19:17 10° S 19:24:10 48° W 19:29:05 10° NNW visible
